Airfield :







YOU CAN JOIN US ON...

 
LOGIN :

Register | Disclaimer

   EN    FR    IT 

 









Legend :    VFR   Marginal VFR   IFR   Intensive IFR   Very Intensive IFR
Visi :
Ceiling :
>= 8 km
>= 3000ft
5 to 8 km
1000 to 3000 ft
1500m to 5 km
500 to 1000 ft
800 to 1500m
200 to 500 ft
< 800m
< 200 ft
Symbols :   Thunderstorms  Fog  Heavy snow  Heavy precipitations  Wind > 20 kt






- Airport Elevation : 35 ft
- IATA code : YGR


CYGR - ëles-de-la-Madeleine

CURRENT METAR :
  • 161800Z 30011KT 20SM BKN280 16/12 A3022 RMK CI5 SLP234

EXPIRED METARs :
  • 161700Z 29013KT 20SM BKN280 16/11 A3020 RMK CI5 SLP227
  • 161600Z 30014KT 20SM SCT280 16/10 A3018 RMK CI3 SLP221

TAF TAF CYGR
Valid from the 16 at 14:00 until the 17 at 02:00 UTC


161338Z 1614/1702 32012G22KT P6SM FEW030
BECMG 1616/1618 27012KT
BECMG 1621/1623 22005KT RMK NXT FCST BY 162000Z
CZQM FIR / North America



MET'MAP, your aeronautical weather chart ! - Copyright ORBIFLY December 2007 - Disclaimer

ORBIFLY MET'MAP TEAM :

Programming & Development : Alexandra Zaïnal
Concept & original design : Baudouin d'Aumeries
Assistance for programming : Marc-Olivier Méhu
Technical & hardware support : Manuel Goepfert

Contact : metmap@orbifly.com




SOURCES & CREDITS :

   NOAA